Year,Month,Day,Hour,Minute,Value (Times are PST for temperature in C)
2019,04,03,00,00,-1.00
2019,04,03,00,01,-1.00
2019,04,03,00,02,-1.00
2019,04,03,00,03,-1.00
2019,04,03,00,04,-1.00
2019,04,03,00,05,-1.00
2019,04,03,00,06,-1.00
2019,04,03,00,07,-1.00
2019,04,03,00,08,-1.00
2019,04,03,00,09,-1.00
2019,04,03,00,10,-1.10
2019,04,03,00,11,-1.10
2019,04,03,00,12,-1.10
2019,04,03,00,13,-1.10
2019,04,03,00,14,-1.20
2019,04,03,00,15,-1.20
2019,04,03,00,16,-1.30
2019,04,03,00,17,-1.30
2019,04,03,00,18,-1.40
2019,04,03,00,19,-1.40
2019,04,03,00,20,-1.40
2019,04,03,00,21,-1.40
2019,04,03,00,22,-1.30
2019,04,03,00,23,-1.30
2019,04,03,00,24,-1.30
2019,04,03,00,25,-1.30
2019,04,03,00,26,-1.30
2019,04,03,00,27,-1.30
2019,04,03,00,28,-1.30
2019,04,03,00,29,-1.30
2019,04,03,00,30,-1.30
2019,04,03,00,31,-1.30
2019,04,03,00,32,-1.30
2019,04,03,00,33,-1.30
2019,04,03,00,34,-1.30
2019,04,03,00,35,-1.30
2019,04,03,00,36,-1.40
2019,04,03,00,37,-1.40
2019,04,03,00,38,-1.40
2019,04,03,00,39,-1.40
2019,04,03,00,40,-1.40
2019,04,03,00,41,-1.40
2019,04,03,00,42,-1.40
2019,04,03,00,43,-1.40
2019,04,03,00,44,-1.40
2019,04,03,00,45,-1.40
2019,04,03,00,46,-1.40
2019,04,03,00,47,-1.40
2019,04,03,00,48,-1.50
2019,04,03,00,49,-1.50
2019,04,03,00,50,-1.50
2019,04,03,00,51,-1.50
2019,04,03,00,52,-1.50
2019,04,03,00,53,-1.50
2019,04,03,00,54,-1.60
2019,04,03,00,55,-1.60
2019,04,03,00,56,-1.60
2019,04,03,00,57,-1.60
2019,04,03,00,58,-1.60
2019,04,03,00,59,-1.60
2019,04,03,01,00,-1.70
2019,04,03,01,01,-1.70
2019,04,03,01,02,-1.70
2019,04,03,01,03,-1.70
2019,04,03,01,04,-1.70
2019,04,03,01,05,-1.70
2019,04,03,01,06,-1.80
2019,04,03,01,07,-1.80
2019,04,03,01,08,-1.80
2019,04,03,01,09,-1.80
2019,04,03,01,10,-1.80
2019,04,03,01,11,-1.80
2019,04,03,01,12,-1.80
2019,04,03,01,13,-1.80
2019,04,03,01,14,-1.80
2019,04,03,01,15,-1.90
2019,04,03,01,16,-1.90
2019,04,03,01,17,-1.90
2019,04,03,01,18,-1.90
2019,04,03,01,19,-1.90
2019,04,03,01,20,-2.00
2019,04,03,01,21,-2.00
2019,04,03,01,22,-2.00
2019,04,03,01,23,-2.00
2019,04,03,01,24,-2.10
2019,04,03,01,25,-2.10
2019,04,03,01,26,-2.10
2019,04,03,01,27,-2.10
2019,04,03,01,28,-2.20
2019,04,03,01,29,-2.20
2019,04,03,01,30,-2.20
2019,04,03,01,31,-2.30
2019,04,03,01,32,-2.30
2019,04,03,01,33,-2.30
2019,04,03,01,34,-2.30
2019,04,03,01,35,-2.40
2019,04,03,01,36,-2.40
2019,04,03,01,37,-2.40
2019,04,03,01,38,-2.30
2019,04,03,01,39,-2.30
2019,04,03,01,40,-2.30
2019,04,03,01,41,-2.40
2019,04,03,01,42,-2.40
2019,04,03,01,43,-2.40
2019,04,03,01,44,-2.40
2019,04,03,01,45,-2.40
2019,04,03,01,46,-2.40
2019,04,03,01,47,-2.40
2019,04,03,01,48,-2.40
2019,04,03,01,49,-2.40
2019,04,03,01,50,-2.40
2019,04,03,01,51,-2.40
2019,04,03,01,52,-2.40
2019,04,03,01,53,-2.50
2019,04,03,01,54,-2.50
2019,04,03,01,55,-2.50
2019,04,03,01,56,-2.60
2019,04,03,01,57,-2.60
2019,04,03,01,58,-2.60
2019,04,03,01,59,-2.60
2019,04,03,02,00,-2.60
2019,04,03,02,01,-2.60
2019,04,03,02,02,-2.70
2019,04,03,02,03,-2.70
2019,04,03,02,04,-2.70
2019,04,03,02,05,-2.80
2019,04,03,02,06,-2.80
2019,04,03,02,07,-2.80
2019,04,03,02,08,-2.80
2019,04,03,02,09,-2.80
2019,04,03,02,10,-2.80
2019,04,03,02,11,-2.80
2019,04,03,02,12,-2.80
2019,04,03,02,13,-2.80
2019,04,03,02,14,-2.80
2019,04,03,02,15,-2.80
2019,04,03,02,16,-2.80
2019,04,03,02,17,-2.80
2019,04,03,02,18,-2.80
2019,04,03,02,19,-2.80
2019,04,03,02,20,-2.90
2019,04,03,02,21,-2.90
2019,04,03,02,22,-2.90
2019,04,03,02,23,-3.00
2019,04,03,02,24,-3.00
2019,04,03,02,25,-3.00
2019,04,03,02,26,-3.00
2019,04,03,02,27,-3.00
2019,04,03,02,28,-3.10
2019,04,03,02,29,-3.10
2019,04,03,02,30,-3.10
2019,04,03,02,31,-3.10
2019,04,03,02,32,-3.10
2019,04,03,02,33,-3.20
2019,04,03,02,34,-3.20
2019,04,03,02,35,-3.20
2019,04,03,02,36,-3.30
2019,04,03,02,37,-3.40
2019,04,03,02,38,-3.40
2019,04,03,02,39,-3.50
2019,04,03,02,40,-3.60
2019,04,03,02,41,-3.60
2019,04,03,02,42,-3.60
2019,04,03,02,43,-3.70
2019,04,03,02,44,-3.70
2019,04,03,02,45,-3.70
2019,04,03,02,46,-3.70
2019,04,03,02,47,-3.70
2019,04,03,02,48,-3.80
2019,04,03,02,49,-3.80
2019,04,03,02,50,-3.80
2019,04,03,02,51,-3.80
2019,04,03,02,52,-3.90
2019,04,03,02,53,-3.90
2019,04,03,02,54,-3.90
2019,04,03,02,55,-4.00
2019,04,03,02,56,-4.00
2019,04,03,02,57,-4.00
2019,04,03,02,58,-4.00
2019,04,03,02,59,-4.00
2019,04,03,03,00,-4.00
2019,04,03,03,01,-4.00
2019,04,03,03,02,-4.00
2019,04,03,03,03,-4.00
2019,04,03,03,04,-4.00
2019,04,03,03,05,-4.00
2019,04,03,03,06,-4.00
2019,04,03,03,07,-4.10
2019,04,03,03,08,-4.10
2019,04,03,03,09,-4.10
2019,04,03,03,10,-4.10
2019,04,03,03,11,-4.10
2019,04,03,03,12,-4.10
2019,04,03,03,13,-4.10
2019,04,03,03,14,-4.10
2019,04,03,03,15,-4.10
2019,04,03,03,16,-4.10
2019,04,03,03,17,-4.10
2019,04,03,03,18,-4.10
2019,04,03,03,19,-4.10
2019,04,03,03,20,-4.10
2019,04,03,03,21,-4.10
2019,04,03,03,22,-4.20
2019,04,03,03,23,-4.20
2019,04,03,03,24,-4.20
2019,04,03,03,25,-4.30
2019,04,03,03,26,-4.30
2019,04,03,03,27,-4.30
2019,04,03,03,28,-4.30
2019,04,03,03,29,-4.30
2019,04,03,03,30,-4.30
2019,04,03,03,31,-4.30
2019,04,03,03,32,-4.40
2019,04,03,03,33,-4.40
2019,04,03,03,34,-4.40
2019,04,03,03,35,-4.40
2019,04,03,03,36,-4.40
2019,04,03,03,37,-4.40
2019,04,03,03,38,-4.40
2019,04,03,03,39,-4.50
2019,04,03,03,40,-4.50
2019,04,03,03,41,-4.60
2019,04,03,03,42,-4.60
2019,04,03,03,43,-4.60
2019,04,03,03,44,-4.60
2019,04,03,03,45,-4.60
2019,04,03,03,46,-4.70
2019,04,03,03,47,-4.70
2019,04,03,03,48,-4.80
2019,04,03,03,49,-4.80
2019,04,03,03,50,-4.80
2019,04,03,03,51,-4.80
2019,04,03,03,52,-4.80
2019,04,03,03,53,-4.80
2019,04,03,03,54,-4.80
2019,04,03,03,55,-4.80
2019,04,03,03,56,-4.80
2019,04,03,03,57,-4.90
2019,04,03,03,58,-4.90
2019,04,03,03,59,-4.90
2019,04,03,04,00,-4.90
2019,04,03,04,01,-4.90
2019,04,03,04,02,-4.90
2019,04,03,04,03,-4.90
2019,04,03,04,04,-4.90
2019,04,03,04,05,-4.90
2019,04,03,04,06,-4.90
2019,04,03,04,07,-5.00
2019,04,03,04,08,-5.00
2019,04,03,04,09,-5.00
2019,04,03,04,10,-5.00
2019,04,03,04,11,-5.00
2019,04,03,04,12,-5.00
2019,04,03,04,13,-5.00
2019,04,03,04,14,-5.10
2019,04,03,04,15,-5.10
2019,04,03,04,16,-5.10
2019,04,03,04,17,-5.10
2019,04,03,04,18,-5.10
2019,04,03,04,19,-5.10
2019,04,03,04,20,-5.10
2019,04,03,04,21,-5.10
2019,04,03,04,22,-5.10
2019,04,03,04,23,-5.20
2019,04,03,04,24,-5.20
2019,04,03,04,25,-5.20
2019,04,03,04,26,-5.20
2019,04,03,04,27,-5.20
2019,04,03,04,28,-5.20
2019,04,03,04,29,-5.30
2019,04,03,04,30,-5.30
2019,04,03,04,31,-5.30
2019,04,03,04,32,-5.30
2019,04,03,04,33,-5.30
2019,04,03,04,34,-5.30
2019,04,03,04,35,-5.30
2019,04,03,04,36,-5.30
2019,04,03,04,37,-5.30
2019,04,03,04,38,-5.30
2019,04,03,04,39,-5.40
2019,04,03,04,40,-5.40
2019,04,03,04,41,-5.40
2019,04,03,04,42,-5.40
2019,04,03,04,43,-5.40
2019,04,03,04,44,-5.40
2019,04,03,04,45,-5.50
2019,04,03,04,46,-5.50
2019,04,03,04,47,-5.50
2019,04,03,04,48,-5.50
2019,04,03,04,49,-5.60
2019,04,03,04,50,-5.60
2019,04,03,04,51,-5.60
2019,04,03,04,52,-5.60
2019,04,03,04,53,-5.60
2019,04,03,04,54,-5.70
2019,04,03,04,55,-5.70
2019,04,03,04,56,-5.70
2019,04,03,04,57,-5.70
2019,04,03,04,58,-5.70
2019,04,03,04,59,-5.70
2019,04,03,05,00,-5.70
2019,04,03,05,01,-5.70
2019,04,03,05,02,-5.70
2019,04,03,05,03,-5.70
2019,04,03,05,04,-5.70
2019,04,03,05,05,-5.70
2019,04,03,05,06,-5.70
2019,04,03,05,07,-5.80
2019,04,03,05,08,-5.80
2019,04,03,05,09,-5.80
2019,04,03,05,10,-5.80
2019,04,03,05,11,-5.80
2019,04,03,05,12,-5.80
2019,04,03,05,13,-5.80
2019,04,03,05,14,-5.90
2019,04,03,05,15,-5.90
2019,04,03,05,16,-5.90
2019,04,03,05,17,-5.90
2019,04,03,05,18,-5.90
2019,04,03,05,19,-5.90
2019,04,03,05,20,-5.90
2019,04,03,05,21,-5.90
2019,04,03,05,22,-6.00
2019,04,03,05,23,-6.00
2019,04,03,05,24,-6.00
2019,04,03,05,25,-6.00
2019,04,03,05,26,-6.00
2019,04,03,05,27,-6.00
2019,04,03,05,28,-6.00
2019,04,03,05,29,-6.10
2019,04,03,05,30,-6.10
2019,04,03,05,31,-6.10
2019,04,03,05,32,-6.10
2019,04,03,05,33,-6.10
2019,04,03,05,34,-6.10
2019,04,03,05,35,-6.10
2019,04,03,05,36,-6.10
2019,04,03,05,37,-6.20
2019,04,03,05,38,-6.20
2019,04,03,05,39,-6.20
2019,04,03,05,40,-6.20
2019,04,03,05,41,-6.20
2019,04,03,05,42,-6.20
2019,04,03,05,43,-6.20
2019,04,03,05,44,-6.20
2019,04,03,05,45,-6.20
2019,04,03,05,46,-6.20
2019,04,03,05,47,-6.20
2019,04,03,05,48,-6.20
2019,04,03,05,49,-6.30
2019,04,03,05,50,-6.30
2019,04,03,05,51,-6.30
2019,04,03,05,52,-6.30
2019,04,03,05,53,-6.30
2019,04,03,05,54,-6.30
2019,04,03,05,55,-6.30
2019,04,03,05,56,-6.40
2019,04,03,05,57,-6.40
2019,04,03,05,58,-6.40
2019,04,03,05,59,-6.40
2019,04,03,06,00,-6.50
2019,04,03,06,01,-6.50
2019,04,03,06,02,-6.50
2019,04,03,06,03,-6.50
2019,04,03,06,04,-6.60
2019,04,03,06,05,-6.60
2019,04,03,06,06,-6.60
2019,04,03,06,07,-6.60
2019,04,03,06,08,-6.60
2019,04,03,06,09,-6.60
2019,04,03,06,10,-6.60
2019,04,03,06,11,-6.60
2019,04,03,06,12,-6.70
2019,04,03,06,13,-6.70
2019,04,03,06,14,-6.70
2019,04,03,06,15,-6.70
2019,04,03,06,16,-6.70
2019,04,03,06,17,-6.70
2019,04,03,06,18,-6.80
2019,04,03,06,19,-6.80
2019,04,03,06,20,-6.80
2019,04,03,06,21,-6.80
2019,04,03,06,22,-6.70
2019,04,03,06,23,-6.70
2019,04,03,06,24,-6.70
2019,04,03,06,25,-6.70
2019,04,03,06,26,-6.70
2019,04,03,06,27,-6.70
2019,04,03,06,28,-6.70
2019,04,03,06,29,-6.70
2019,04,03,06,30,-6.70
2019,04,03,06,31,-6.70
2019,04,03,06,32,-6.80
2019,04,03,06,33,-6.80
2019,04,03,06,34,-6.80
2019,04,03,06,35,-6.90
2019,04,03,06,36,-6.90
2019,04,03,06,37,-6.90
2019,04,03,06,38,-6.90
2019,04,03,06,39,-6.90
2019,04,03,06,40,-6.90
2019,04,03,06,41,-6.90
2019,04,03,06,42,-6.90
2019,04,03,06,43,-6.90
2019,04,03,06,44,-7.00
2019,04,03,06,45,-7.00
2019,04,03,06,46,-7.00
2019,04,03,06,47,-7.00
2019,04,03,06,48,-7.10
2019,04,03,06,49,-7.10
2019,04,03,06,50,-7.10
2019,04,03,06,51,-7.10
2019,04,03,06,52,-7.10
2019,04,03,06,53,-7.10
2019,04,03,06,54,-7.20
2019,04,03,06,55,-7.20
2019,04,03,06,56,-7.20
2019,04,03,06,57,-7.20
2019,04,03,06,58,-7.20
2019,04,03,06,59,-7.20
2019,04,03,07,00,-7.30
2019,04,03,07,01,-7.30
2019,04,03,07,02,-7.30
2019,04,03,07,03,-7.30
2019,04,03,07,04,-7.30
2019,04,03,07,05,-7.30
2019,04,03,07,06,-7.40
2019,04,03,07,07,-7.40
2019,04,03,07,08,-7.40
2019,04,03,07,09,-7.40
2019,04,03,07,10,-7.40
2019,04,03,07,11,-7.40
2019,04,03,07,12,-7.40
2019,04,03,07,13,-7.40
2019,04,03,07,14,-7.40
2019,04,03,07,15,-7.40
2019,04,03,07,16,-7.40
2019,04,03,07,17,-7.40
2019,04,03,07,18,-7.40
2019,04,03,07,19,-7.40
2019,04,03,07,20,-7.40
2019,04,03,07,21,-7.50
2019,04,03,07,22,-7.50
2019,04,03,07,23,-7.50
2019,04,03,07,24,-7.50
2019,04,03,07,25,-7.50
2019,04,03,07,26,-7.50
2019,04,03,07,27,-7.50
2019,04,03,07,28,-7.50
2019,04,03,07,29,-7.50
2019,04,03,07,30,-7.50
2019,04,03,07,31,-7.60
2019,04,03,07,32,-7.60
2019,04,03,07,33,-7.60
2019,04,03,07,34,-7.60
2019,04,03,07,35,-7.60
2019,04,03,07,36,-7.60
2019,04,03,07,37,-7.70
2019,04,03,07,38,-7.70
2019,04,03,07,39,-7.70
2019,04,03,07,40,-7.70
2019,04,03,07,41,-7.70
2019,04,03,07,42,-7.70
2019,04,03,07,43,-7.70
2019,04,03,07,44,-7.80
2019,04,03,07,45,-7.80
2019,04,03,07,46,-7.80
2019,04,03,07,47,-7.80
2019,04,03,07,48,-7.80
2019,04,03,07,49,-7.80
2019,04,03,07,50,-7.80
2019,04,03,07,51,-7.80
2019,04,03,07,52,-7.80
2019,04,03,07,53,-7.80
2019,04,03,07,54,-7.90
2019,04,03,07,55,-7.90
2019,04,03,07,56,-7.90
2019,04,03,07,57,-7.90
2019,04,03,07,58,-7.90
2019,04,03,07,59,-7.90
2019,04,03,08,00,-8.00
2019,04,03,08,01,-8.00
2019,04,03,08,02,-8.00
2019,04,03,08,03,-8.00
2019,04,03,08,04,-8.10
2019,04,03,08,05,-8.10
2019,04,03,08,06,-8.10
2019,04,03,08,07,-8.10
2019,04,03,08,08,-8.10
2019,04,03,08,09,-8.10
2019,04,03,08,10,-8.10
2019,04,03,08,11,-8.10
2019,04,03,08,12,-8.20
2019,04,03,08,13,-8.20
2019,04,03,08,14,-8.20
2019,04,03,08,15,-8.20
2019,04,03,08,16,-8.20
2019,04,03,08,17,-8.20
2019,04,03,08,18,-8.20
2019,04,03,08,19,-8.20
2019,04,03,08,20,-8.20
2019,04,03,08,21,-8.20
2019,04,03,08,22,-8.20
2019,04,03,08,23,-8.20
2019,04,03,08,24,-8.20
2019,04,03,08,25,-8.20
2019,04,03,08,26,-8.20
2019,04,03,08,27,-8.20
2019,04,03,08,28,-8.20
2019,04,03,08,29,-8.20
2019,04,03,08,30,-8.20
2019,04,03,08,31,-8.20
2019,04,03,08,32,-8.20
2019,04,03,08,33,-8.20
2019,04,03,08,34,-8.20
2019,04,03,08,35,-8.20
2019,04,03,08,36,-8.20
2019,04,03,08,37,-8.20
2019,04,03,08,38,-8.20
2019,04,03,08,39,-8.20
2019,04,03,08,40,-8.20
2019,04,03,08,41,-8.20
2019,04,03,08,42,-8.20
2019,04,03,08,43,-8.20
2019,04,03,08,44,-8.20
2019,04,03,08,45,-8.20
2019,04,03,08,46,-8.20
2019,04,03,08,47,-8.20
2019,04,03,08,48,-8.20
2019,04,03,08,49,-8.20
2019,04,03,08,50,-8.30
2019,04,03,08,51,-8.30
2019,04,03,08,52,-8.30
2019,04,03,08,53,-8.30
2019,04,03,08,54,-8.30
2019,04,03,08,55,-8.30
2019,04,03,08,56,-8.30
2019,04,03,08,57,-8.30
2019,04,03,08,58,-8.30
2019,04,03,08,59,-8.30
2019,04,03,09,00,-8.30
2019,04,03,09,01,-8.30
2019,04,03,09,02,-8.30
2019,04,03,09,03,-8.30
2019,04,03,09,04,-8.30
2019,04,03,09,05,-8.30
2019,04,03,09,06,-8.30
2019,04,03,09,07,-8.30
2019,04,03,09,08,-8.30
2019,04,03,09,09,-8.30
2019,04,03,09,10,-8.30
2019,04,03,09,11,-8.20
2019,04,03,09,12,-8.20
2019,04,03,09,13,-8.20
2019,04,03,09,14,-8.20
2019,04,03,09,15,-8.20
2019,04,03,09,16,-8.20
2019,04,03,09,17,-8.20
2019,04,03,09,18,-8.20
2019,04,03,09,19,-8.20
2019,04,03,09,20,-8.20
2019,04,03,09,21,-8.20
2019,04,03,09,22,-8.20
2019,04,03,09,23,-8.20
2019,04,03,09,24,-8.20
2019,04,03,09,25,-8.20
2019,04,03,09,26,-8.20
2019,04,03,09,27,-8.20
2019,04,03,09,28,-8.20
2019,04,03,09,29,-8.20
2019,04,03,09,30,-8.20
2019,04,03,09,31,-8.20
2019,04,03,09,32,-8.20
2019,04,03,09,33,-8.20
2019,04,03,09,34,-8.20
2019,04,03,09,35,-8.20
2019,04,03,09,36,-8.20
2019,04,03,09,37,-8.20
2019,04,03,09,38,-8.20
2019,04,03,09,39,-8.20
2019,04,03,09,40,-8.20
2019,04,03,09,41,-8.20
2019,04,03,09,42,-8.20
2019,04,03,09,43,-8.20
2019,04,03,09,44,-8.20
2019,04,03,09,45,-8.20
2019,04,03,09,46,-8.20
2019,04,03,09,47,-8.20
2019,04,03,09,48,-8.30
2019,04,03,09,49,-8.30
2019,04,03,09,50,-8.30
2019,04,03,09,51,-8.30
2019,04,03,09,52,-8.30
2019,04,03,09,53,-8.30
2019,04,03,09,54,-8.20
2019,04,03,09,55,-8.20
2019,04,03,09,56,-8.20
2019,04,03,09,57,-8.20
2019,04,03,09,58,-8.20
2019,04,03,09,59,-8.20
2019,04,03,10,00,-8.20
2019,04,03,10,01,-8.20
2019,04,03,10,02,-8.20
2019,04,03,10,03,-8.20
2019,04,03,10,04,-8.20
2019,04,03,10,05,-8.20
2019,04,03,10,06,-8.20
2019,04,03,10,07,-8.20
2019,04,03,10,08,-8.10
2019,04,03,10,09,-8.10
2019,04,03,10,10,-8.10
2019,04,03,10,11,-8.10
2019,04,03,10,12,-8.00
2019,04,03,10,13,-8.00
2019,04,03,10,14,-7.90
2019,04,03,10,15,-7.90
2019,04,03,10,16,-7.80
2019,04,03,10,17,-7.80
2019,04,03,10,18,-7.70
2019,04,03,10,19,-7.70
2019,04,03,10,20,-7.60
2019,04,03,10,21,-7.60
2019,04,03,10,22,-7.50
2019,04,03,10,23,-7.50
2019,04,03,10,24,-7.40
2019,04,03,10,25,-7.30
2019,04,03,10,26,-7.30
2019,04,03,10,27,-7.30
2019,04,03,10,28,-7.20
2019,04,03,10,29,-7.20
2019,04,03,10,30,-7.20
2019,04,03,10,31,-7.10
2019,04,03,10,32,-7.10
2019,04,03,10,33,-7.10
2019,04,03,10,34,-7.10
2019,04,03,10,35,-7.00
2019,04,03,10,36,-7.10
2019,04,03,10,37,-7.10
2019,04,03,10,38,-7.00
2019,04,03,10,39,-7.00
2019,04,03,10,40,-7.00
2019,04,03,10,41,-7.00
2019,04,03,10,42,-6.90
2019,04,03,10,43,-6.90
2019,04,03,10,44,-6.90
2019,04,03,10,45,-6.90
2019,04,03,10,46,-6.90
2019,04,03,10,47,-6.90
2019,04,03,10,48,-6.90
2019,04,03,10,49,-6.90
2019,04,03,10,50,-6.80
2019,04,03,10,51,-6.80
2019,04,03,10,52,-6.70
2019,04,03,10,53,-6.70
2019,04,03,10,54,-6.60
2019,04,03,10,55,-6.50
2019,04,03,10,56,-6.50
2019,04,03,10,57,-6.40
2019,04,03,10,58,-6.40
2019,04,03,10,59,-6.40
2019,04,03,11,00,-6.30
2019,04,03,11,01,-6.30
2019,04,03,11,02,-6.30
2019,04,03,11,03,-6.30
2019,04,03,11,04,-6.20
2019,04,03,11,05,-6.20
2019,04,03,11,06,-6.20
2019,04,03,11,07,-6.20
2019,04,03,11,08,-6.10
2019,04,03,11,09,-6.10
2019,04,03,11,10,-6.10
2019,04,03,11,11,-6.00
2019,04,03,11,12,-6.00
2019,04,03,11,13,-6.00
2019,04,03,11,14,-5.90
2019,04,03,11,15,-5.90
2019,04,03,11,16,-5.90
2019,04,03,11,17,-5.80
2019,04,03,11,18,-5.80
2019,04,03,11,19,-5.80
2019,04,03,11,20,-5.70
2019,04,03,11,21,-5.70
2019,04,03,11,22,-5.70
2019,04,03,11,23,-5.60
2019,04,03,11,24,-5.50
2019,04,03,11,25,-5.50
2019,04,03,11,26,-5.50
2019,04,03,11,27,-5.50
2019,04,03,11,28,-5.50
2019,04,03,11,29,-5.40
2019,04,03,11,30,-5.40
2019,04,03,11,31,-5.40
2019,04,03,11,32,-5.40
2019,04,03,11,33,-5.40
2019,04,03,11,34,-5.40
2019,04,03,11,35,-5.40
2019,04,03,11,36,-5.40
2019,04,03,11,37,-5.40
2019,04,03,11,38,-5.40
2019,04,03,11,39,-5.50
2019,04,03,11,40,-5.40
2019,04,03,11,41,-5.40
2019,04,03,11,42,-5.40
2019,04,03,11,43,-5.40
2019,04,03,11,44,-5.50
2019,04,03,11,45,-5.40
2019,04,03,11,46,-5.40
2019,04,03,11,47,-5.40
2019,04,03,11,48,-5.40
2019,04,03,11,49,-5.30
2019,04,03,11,50,-5.30
2019,04,03,11,51,-5.20
2019,04,03,11,52,-5.20
2019,04,03,11,53,-5.20
2019,04,03,11,54,-5.10
2019,04,03,11,55,-5.00
2019,04,03,11,56,-5.00
2019,04,03,11,57,-4.90
2019,04,03,11,58,-4.80
2019,04,03,11,59,-4.80
2019,04,03,12,00,-4.70
2019,04,03,12,01,-4.70
2019,04,03,12,02,-4.70
2019,04,03,12,03,-4.60
2019,04,03,12,04,-4.60
2019,04,03,12,05,-4.50
2019,04,03,12,06,-4.50
2019,04,03,12,07,-4.40
2019,04,03,12,08,-4.40
2019,04,03,12,09,-4.40
2019,04,03,12,10,-4.40
2019,04,03,12,11,-4.40
2019,04,03,12,12,-4.40
2019,04,03,12,13,-4.40
2019,04,03,12,14,-4.40
2019,04,03,12,15,-4.40
2019,04,03,12,16,-4.40
2019,04,03,12,17,-4.30
2019,04,03,12,18,-4.30
2019,04,03,12,19,-4.30
2019,04,03,12,20,-4.30
2019,04,03,12,21,-4.30
2019,04,03,12,22,-4.20
2019,04,03,12,23,-4.20
2019,04,03,12,24,-4.20
2019,04,03,12,25,-4.20
2019,04,03,12,26,-4.20
2019,04,03,12,27,-4.20
2019,04,03,12,28,-4.20
2019,04,03,12,29,-4.20
2019,04,03,12,30,-4.20
2019,04,03,12,31,-4.20
2019,04,03,12,32,-4.20
2019,04,03,12,33,-4.20
2019,04,03,12,34,-4.20
2019,04,03,12,35,-4.20
2019,04,03,12,36,-4.20
2019,04,03,12,37,-4.20
2019,04,03,12,38,-4.10
2019,04,03,12,39,-4.10
2019,04,03,12,40,-4.10
2019,04,03,12,41,-4.00
2019,04,03,12,42,-4.00
2019,04,03,12,43,-3.90
2019,04,03,12,44,-3.90
2019,04,03,12,45,-3.80
2019,04,03,12,46,-3.80
2019,04,03,12,47,-3.80
2019,04,03,12,48,-3.80
2019,04,03,12,49,-3.70
2019,04,03,12,50,-3.70
2019,04,03,12,51,-3.70
2019,04,03,12,52,-3.70
2019,04,03,12,53,-3.60
2019,04,03,12,54,-3.50
2019,04,03,12,55,-3.50
2019,04,03,12,56,-3.40
2019,04,03,12,57,-3.40
2019,04,03,12,58,-3.50
2019,04,03,12,59,-3.50
2019,04,03,13,00,-3.50
2019,04,03,13,01,-3.40
2019,04,03,13,02,-3.40
2019,04,03,13,03,-3.40
2019,04,03,13,04,-3.40
2019,04,03,13,05,-3.30
2019,04,03,13,06,-3.30
2019,04,03,13,07,-3.30
2019,04,03,13,08,-3.20
2019,04,03,13,09,-3.30
2019,04,03,13,10,-3.30
2019,04,03,13,11,-3.40
2019,04,03,13,12,-3.40
2019,04,03,13,13,-3.30
2019,04,03,13,14,-3.30
2019,04,03,13,15,-3.30
2019,04,03,13,16,-3.30
2019,04,03,13,17,-3.30
2019,04,03,13,18,-3.40
2019,04,03,13,19,-3.40
2019,04,03,13,20,-3.50
2019,04,03,13,21,-3.40
2019,04,03,13,22,-3.40
2019,04,03,13,23,-3.30
2019,04,03,13,24,-3.30
2019,04,03,13,25,-3.30
2019,04,03,13,26,-3.30
2019,04,03,13,27,-3.20
2019,04,03,13,28,-3.20
2019,04,03,13,29,-3.10
2019,04,03,13,30,-3.10
2019,04,03,13,31,-3.10
2019,04,03,13,32,-3.00
2019,04,03,13,33,-3.00
2019,04,03,13,34,-3.00
2019,04,03,13,35,-2.90
2019,04,03,13,36,-2.90
2019,04,03,13,37,-2.90
2019,04,03,13,38,-3.00
2019,04,03,13,39,-3.00
2019,04,03,13,40,-2.90
2019,04,03,13,41,-2.90
2019,04,03,13,42,-2.80
2019,04,03,13,43,-2.80
2019,04,03,13,44,-2.80
2019,04,03,13,45,-2.80
2019,04,03,13,46,-2.80
2019,04,03,13,47,-2.80
2019,04,03,13,48,-2.90
2019,04,03,13,49,-2.90
2019,04,03,13,50,-2.90
2019,04,03,13,51,-2.90
2019,04,03,13,52,-3.00
2019,04,03,13,53,-3.00
2019,04,03,13,54,-3.00
2019,04,03,13,55,-3.00
2019,04,03,13,56,-3.00
2019,04,03,13,57,-2.90
2019,04,03,13,58,-2.90
2019,04,03,13,59,-2.80
2019,04,03,14,00,-2.80
2019,04,03,14,01,-2.80
2019,04,03,14,02,-2.70
2019,04,03,14,03,-2.70
2019,04,03,14,04,-2.70
2019,04,03,14,05,-2.80
2019,04,03,14,06,-2.80
2019,04,03,14,07,-2.80
2019,04,03,14,08,-2.80
2019,04,03,14,09,-2.80
2019,04,03,14,10,-2.80
2019,04,03,14,11,-2.80
2019,04,03,14,12,-2.70
2019,04,03,14,13,-2.70
2019,04,03,14,14,-2.70
2019,04,03,14,15,-2.70
2019,04,03,14,16,-2.70
2019,04,03,14,17,-2.70
2019,04,03,14,18,-2.70
2019,04,03,14,19,-2.70
2019,04,03,14,20,-2.70
2019,04,03,14,21,-2.60
2019,04,03,14,22,-2.60
2019,04,03,14,23,-2.70
2019,04,03,14,24,-2.70
2019,04,03,14,25,-2.60
2019,04,03,14,26,-2.60
2019,04,03,14,27,-2.60
2019,04,03,14,28,-2.60
2019,04,03,14,29,-2.60
2019,04,03,14,30,-2.50
2019,04,03,14,31,-2.40
2019,04,03,14,32,-2.40
2019,04,03,14,33,-2.40
2019,04,03,14,34,-2.40
2019,04,03,14,35,-2.40
2019,04,03,14,36,-2.50
2019,04,03,14,37,-2.50
2019,04,03,14,38,-2.50
2019,04,03,14,39,-2.50
2019,04,03,14,40,-2.40
2019,04,03,14,41,-2.40
2019,04,03,14,42,-2.40
2019,04,03,14,43,-2.40
2019,04,03,14,44,-2.40
2019,04,03,14,45,-2.40
2019,04,03,14,46,-2.30
2019,04,03,14,47,-2.30
2019,04,03,14,48,-2.30
2019,04,03,14,49,-2.30
2019,04,03,14,50,-2.30
2019,04,03,14,51,-2.20
2019,04,03,14,52,-2.30
2019,04,03,14,53,-2.30
2019,04,03,14,54,-2.30
2019,04,03,14,55,-2.30
2019,04,03,14,56,-2.30
2019,04,03,14,57,-2.30
2019,04,03,14,58,-2.30
2019,04,03,14,59,-2.40
2019,04,03,15,00,-2.40
2019,04,03,15,01,-2.40
2019,04,03,15,02,-2.40
2019,04,03,15,03,-2.40
2019,04,03,15,04,-2.40
2019,04,03,15,05,-2.50
2019,04,03,15,06,-2.50
2019,04,03,15,07,-2.40
2019,04,03,15,08,-2.40
2019,04,03,15,09,-2.40
2019,04,03,15,10,-2.30
2019,04,03,15,11,-2.30
2019,04,03,15,12,-2.40
2019,04,03,15,13,-2.30
2019,04,03,15,14,-2.30
2019,04,03,15,15,-2.30
2019,04,03,15,16,-2.30
2019,04,03,15,17,-2.30
2019,04,03,15,18,-2.30
2019,04,03,15,19,-2.30
2019,04,03,15,20,-2.30
2019,04,03,15,21,-2.20
2019,04,03,15,22,-2.20
2019,04,03,15,23,-2.10
2019,04,03,15,24,-2.10
2019,04,03,15,25,-2.10
2019,04,03,15,26,-2.10
2019,04,03,15,27,-2.00
2019,04,03,15,28,-2.00
2019,04,03,15,29,-2.00
2019,04,03,15,30,-2.00
2019,04,03,15,31,-2.00
2019,04,03,15,32,-2.00
2019,04,03,15,33,-2.00
2019,04,03,15,34,-2.10
2019,04,03,15,35,-2.10
2019,04,03,15,36,-2.10
2019,04,03,15,37,-2.10
2019,04,03,15,38,-2.00
2019,04,03,15,39,-2.00
2019,04,03,15,40,-1.90
2019,04,03,15,41,-1.90
2019,04,03,15,42,-2.00
2019,04,03,15,43,-2.00
2019,04,03,15,44,-2.00
2019,04,03,15,45,-1.90
2019,04,03,15,46,-1.90
2019,04,03,15,47,-1.90
2019,04,03,15,48,-1.90
2019,04,03,15,49,-2.00
2019,04,03,15,50,-2.00
2019,04,03,15,51,-2.00
2019,04,03,15,52,-2.00
2019,04,03,15,53,-1.90
2019,04,03,15,54,-1.90
2019,04,03,15,55,-1.90
2019,04,03,15,56,-1.90
2019,04,03,15,57,-1.90
2019,04,03,15,58,-1.90
2019,04,03,15,59,-1.80
2019,04,03,16,00,-1.80
2019,04,03,16,01,-1.80
2019,04,03,16,02,-1.80
2019,04,03,16,03,-1.90
2019,04,03,16,04,-1.90
2019,04,03,16,05,-1.90
2019,04,03,16,06,-1.90
2019,04,03,16,07,-1.90
2019,04,03,16,08,-1.80
2019,04,03,16,09,-1.80
2019,04,03,16,10,-1.80
2019,04,03,16,11,-1.80
2019,04,03,16,12,-1.80
2019,04,03,16,13,-1.80
2019,04,03,16,14,-1.80
2019,04,03,16,15,-1.80
2019,04,03,16,16,-1.80
2019,04,03,16,17,-1.80
2019,04,03,16,18,-1.80
2019,04,03,16,19,-1.80
2019,04,03,16,20,-1.80
2019,04,03,16,21,-1.80
2019,04,03,16,22,-1.80
2019,04,03,16,23,-1.70
2019,04,03,16,24,-1.80
2019,04,03,16,25,-1.80
2019,04,03,16,26,-1.80
2019,04,03,16,27,-1.90
2019,04,03,16,28,-1.90
2019,04,03,16,29,-1.80
2019,04,03,16,30,-1.80
2019,04,03,16,31,-1.80
2019,04,03,16,32,-1.80
2019,04,03,16,33,-1.80
2019,04,03,16,34,-1.80
2019,04,03,16,35,-1.80
2019,04,03,16,36,-1.70
2019,04,03,16,37,-1.70
2019,04,03,16,38,-1.70
2019,04,03,16,39,-1.70
2019,04,03,16,40,-1.70
2019,04,03,16,41,-1.70
2019,04,03,16,42,-1.70
2019,04,03,16,43,-1.70
2019,04,03,16,44,-1.70
2019,04,03,16,45,-1.70
2019,04,03,16,46,-1.70
2019,04,03,16,47,-1.70
2019,04,03,16,48,-1.70
2019,04,03,16,49,-1.70
2019,04,03,16,50,-1.70
2019,04,03,16,51,-1.70
2019,04,03,16,52,-1.70
2019,04,03,16,53,-1.70
2019,04,03,16,54,-1.60
2019,04,03,16,55,-1.70
2019,04,03,16,56,-1.70
2019,04,03,16,57,-1.70
2019,04,03,16,58,-1.70
2019,04,03,16,59,-1.70
2019,04,03,17,00,-1.70
2019,04,03,17,01,-1.70
2019,04,03,17,02,-1.70
2019,04,03,17,03,-1.70
2019,04,03,17,04,-1.70
2019,04,03,17,05,-1.70
2019,04,03,17,06,-1.80
2019,04,03,17,07,-1.80
2019,04,03,17,08,-1.80
2019,04,03,17,09,-1.80
2019,04,03,17,10,-1.80
2019,04,03,17,11,-1.80
2019,04,03,17,12,-1.80
2019,04,03,17,13,-1.70
2019,04,03,17,14,-1.70
2019,04,03,17,15,-1.70
2019,04,03,17,16,-1.70
2019,04,03,17,17,-1.70
2019,04,03,17,18,-1.70
2019,04,03,17,19,-1.70